Flag for Canada Weather past 2 weeks in Selkirk, Manitoba, Canada

Now
35 °F

Chilly.


Feels Like: 29 °F
Forecast: 34 / 52 °F
Wind: 7 mph from North

Location: Winnipeg The Forks

Current Time: May 30, 2015 at 2:27:16 AM

Latest Report: May 30, 2015 at 2:00 AM


Visibility: N/A

Pressure: 30.40 "Hg

Humidity: 61%

Dew point: 22 °F

Location of SelkirkLocation

Historic Weather in Selkirk — Graph

°F

Selkirk temperature yesterday

Maximum temperature yesterday: 51 °F (at 12:00 AM)
Minimum temperature yesterday: 38 °F (at 11:00 PM)
Average temperature yesterday: 45 °F

Past Weeks' High & Low Weather Summary

 TemperatureHumidityPressure
High85 °F (May 26, 4:00 PM)99% (May 17, 11:00 PM)30.44 "Hg (May 17, 11:00 PM)
Low31 °F (May 18, 9:00 AM)14% (May 22, 5:00 PM)29.70 "Hg (May 25, 6:00 PM)
Average57 °F55%30.01 "Hg
* Reported May 15 1:00 AM — May 30 1:00 AM, Selkirk, Weather by CustomWeather, © 2015

Note: Actual official high and low records may vary slightly from our data, if they occured in-between our weather recording intervals... More about our weather records

Advertising

Selkirk weather history for previous 24 hours

 ConditionsComfort  
Time TempWeatherWind HumidityBarometerVisibility
1:00 AM
Sat, May 30
36 °FChilly.8 mph55%30.40 "HgN/A
12:00 AM37 °FChilly.8 mph57%30.40 "HgN/A
11:00 PM
Fri, May 29
38 °FChilly.6 mph57%30.39 "HgN/A
10:00 PM40 °FQuite cool.9 mph52%30.37 "HgN/A
9:00 PM42 °FQuite cool.12 mph46%30.35 "HgN/A
7:00 PM47 °FCool.9 mph46%30.31 "HgN/A
6:00 PM47 °FCool.12 mph48%30.29 "HgN/A
5:00 PM49 °FCool.12 mph47%30.27 "HgN/A
4:00 PM50 °FCool.12 mph52%30.26 "HgN/A
3:00 PM49 °FCool.12 mph52%30.26 "HgN/A
2:00 PM49 °FCool.10 mph54%30.25 "HgN/A
1:00 PM47 °FCool.12 mph62%30.24 "HgN/A
12:00 PM46 °FCool.10 mph64%30.24 "HgN/A
11:00 AM44 °FQuite cool.10 mph66%30.22 "HgN/A
10:00 AM42 °FQuite cool.12 mph65%30.20 "HgN/A
9:00 AM41 °FQuite cool.9 mph74%30.19 "HgN/A
8:00 AM40 °FQuite cool.12 mph76%30.17 "HgN/A
7:00 AM40 °FQuite cool.12 mph78%30.15 "HgN/A
6:00 AM41 °FQuite cool.12 mph79%30.11 "HgN/A
5:00 AM43 °FQuite cool.9 mph80%30.08 "HgN/A
4:00 AM43 °FQuite cool.9 mph83%30.05 "HgN/A
3:00 AM44 °FQuite cool.12 mph84%30.03 "HgN/A
2:00 AM47 °FCool.9 mph84%30.01 "HgN/A
Weather by CustomWeather, © 2015

See weather overviewHow to use our weather pages